Location: Unspecified
(52.4292°N, 19.3359°E)
Time: 01:02:01
(UTC+02:00)

SR - Pass Details

Date: 28 May 2024
Orbit: 580 x 858 km, 66.7° (Epoch: 12 June)

Event Time Altitude Azimuth Distance (km) Brightness Sun altitude
Rises 22:30:08 0° 315° (NW) 2,964 ? -10.7°
Reaches altitude 10° 22:33:19 10° 338° (NNW) 2,003 ? -10.9°
Maximum altitude 22:36:05 16° 16° (NNE) 1,610 ? -11.2°
Drops below altitude 10° 22:38:48 10° 55° (NE) 1,935 ? -11.4°
Sets 22:41:47 0° 78° (ENE) 2,813 ? -11.6°
